FW4179 Weather Reports


time (UTC)temp
C
wind
direction
speed
KPH
gust
KPH
rain 1hr
cm
rain 24hr
cm
rain mn
cm
humidity
%
barometer
mb
20260831231603 32 126 1.6 12.9 0.00 0.00 0.00 61 1019.6
20260831230056 34 179 3.2 6.4 0.00 0.00 0.00 55 1019.6
20260831224559 35 0 0.0 1.6 0.00 0.00 0.00 52 1019.6
20260831223058 34 0 0.0 1.6 0.00 0.00 0.00 53 1019.7
20260831221551 33 0 0.0 4.8 0.00 0.00 0.00 54 1019.7
20260831220058 34 302 0.0 6.4 0.00 0.00 0.00 54 1019.9
20260831214605 34 0 0.0 8.0 0.00 0.00 0.00 54 1020.0
20260831213102 35 0 0.0 3.2 0.00 0.00 0.00 53 1020.0
20260831211550 33 0 0.0 6.4 0.00 0.00 0.00 54 1020.0
20260831210057 33 134 3.2 11.3 0.00 0.00 0.00 54 1020.0
20260831204601 33 0 1.6 8.0 0.00 0.00 0.00 55 1020.2
20260831203102 33 0 0.0 4.8 0.00 0.00 0.00 55 1020.3
20260831201602 33 225 1.6 12.9 0.00 0.00 0.00 57 1020.4
20260831200058 33 137 1.6 8.0 0.00 0.00 0.00 56 1020.5
20260831194552 33 244 0.0 8.0 0.00 0.00 0.00 57 1020.8
20260831193128 33 0 1.6 9.7 0.00 0.00 0.00 57 1021.0
20260831191551 33 264 1.6 6.4 0.00 0.00 0.00 60 1020.9
20260831190101 32 299 3.2 9.7 0.00 0.00 0.00 57 1021.2
20260831184602 32 238 0.0 11.3 0.00 0.00 0.00 61 1021.4
20260831183102 32 0 1.6 11.3 0.00 0.00 0.00 64 1021.5
20260831181613 32 0 0.0 6.4 0.00 0.00 0.00 63 1021.6
20260831180107 32 170 1.6 9.7 0.00 0.00 0.00 65 1021.8
20260831174555 31 257 3.2 11.3 0.00 0.00 0.00 65 1021.9
20260831173102 31 249 0.0 6.4 0.00 0.00 0.00 66 1022.0
20260831171600 31 290 0.0 6.4 0.00 0.00 0.00 69 1022.1
20260831170112 30 288 0.0 8.0 0.00 0.00 0.00 68 1022.3
20260831164609 30 0 0.0 6.4 0.00 0.00 0.00 69 1022.4
20260831163100 30 223 0.0 11.3 0.00 0.00 0.00 71 1022.7
20260831161609 30 267 3.2 9.7 0.00 0.00 0.00 71 1022.6
20260831160108 30 188 1.6 9.7 0.00 0.00 0.00 72 1022.6
20260831154618 30 202 1.6 8.0 0.00 0.00 0.00 72 1022.7
20260831153056 30 278 1.6 8.0 0.00 0.00 0.00 74 1022.7
20260831151559 28 286 3.2 6.4 0.00 0.00 0.00 76 1022.7
20260831150105 28 232 1.6 6.4 0.00 0.00 0.00 76 1022.7
20260831144601 28 249 1.6 6.4 0.00 0.00 0.00 80 1022.7
20260831143049 27 0 1.6 11.3 0.00 0.00 0.00 82 1022.6
20260831141604 26 119 4.8 11.3 0.00 0.00 0.00 83 1022.5
20260831140100 26 136 1.6 8.0 0.00 0.00 0.00 84 1022.3
20260831134607 25 130 1.6 8.0 0.00 0.00 0.00 85 1022.3
20260831133055 25 156 4.8 11.3 0.00 0.00 0.00 87 1022.4
20260831131601 24 145 6.4 12.9 0.00 0.00 0.00 88 1022.3
20260831130056 23 140 4.8 11.3 0.00 0.00 0.00 90 1022.3
20260831124555 23 142 0.0 4.8 0.00 0.00 0.00 91 1022.1
20260831123055 22 140 1.6 4.8 0.00 0.00 0.00 92 1022.0
20260831121556 22 142 3.2 4.8 0.00 0.00 0.00 95 1021.8
20260831120052 21 0 0.0 0.0 0.00 0.00 0.00 95 1021.6
20260831114602 21 0 0.0 0.0 0.00 0.00 0.00 95 1021.5
20260831113102 21 0 0.0 0.0 0.00 0.00 0.00 95 1021.4
20260831111557 21 0 0.0 3.2 0.00 0.00 0.00 95 1021.3
20260831110052 21 0 0.0 1.6 0.00 0.00 0.00 94 1021.4
20260831104600 21 0 0.0 0.0 0.00 0.00 0.00 93 1021.0
20260831103056 21 0 0.0 4.8 0.00 0.00 0.00 93 1021.1
20260831101601 22 140 3.2 8.0 0.00 0.00 0.00 93 1020.9
20260831100106 22 134 1.6 4.8 0.00 0.00 0.00 92 1020.8
20260831094600 22 132 3.2 8.0 0.00 0.00 0.00 93 1020.7
20260831093107 22 0 0.0 0.0 0.00 0.00 0.00 93 1020.7
20260831091550 22 0 0.0 0.0 0.00 0.00 0.00 94 1020.7
20260831090059 22 0 0.0 0.0 0.00 0.00 0.00 94 1020.6
20260831084559 21 0 0.0 0.0 0.00 0.00 0.00 94 1020.5
20260831083110 22 0 0.0 0.0 0.00 0.00 0.00 93 1020.3
20260831081601 22 0 0.0 0.0 0.00 0.00 0.00 93 1020.3
20260831080123 22 0 0.0 0.0 0.00 0.00 0.00 94 1020.2
20260831074602 22 0 0.0 0.0 0.00 0.00 0.00 94 1020.3
20260831073059 22 0 0.0 0.0 0.00 0.00 0.00 94 1020.5
20260831071556 22 0 0.0 0.0 0.00 0.00 0.00 93 1020.3
20260831070052 22 0 0.0 0.0 0.00 0.00 0.00 93 1020.4
20260831064557 22 0 0.0 0.0 0.00 0.00 0.00 92 1020.4
20260831063111 23 0 0.0 4.8 0.00 0.00 0.00 91 1020.5
20260831061559 23 137 1.6 8.0 0.00 0.00 0.00 91 1020.6
20260831060056 23 138 1.6 6.4 0.00 0.00 0.00 91 1020.6
20260831054559 23 0 0.0 0.0 0.00 0.00 0.00 90 1020.8
20260831053130 23 0 0.0 4.8 0.00 0.00 0.00 90 1020.8
20260831051556 23 138 1.6 4.8 0.00 0.00 0.00 90 1020.7
20260831050055 23 0 0.0 6.4 0.00 0.00 0.00 89 1020.8
20260831044641 24 0 0.0 0.0 0.00 0.00 0.00 88 1020.7
20260831043057 24 0 0.0 0.0 0.00 0.00 0.00 87 1020.7
20260831041609 25 0 0.0 0.0 0.00 0.00 0.00 86 1020.8
20260831040104 25 0 0.0 3.2 0.00 0.00 0.00 85 1020.7
20260831034606 25 138 0.0 3.2 0.00 0.00 0.00 85 1020.8
20260831033110 25 138 1.6 4.8 0.00 0.00 0.00 84 1020.7
20260831031556 25 132 0.0 4.8 0.00 0.00 0.00 84 1020.7
20260831030052 25 0 0.0 0.0 0.00 0.00 0.00 84 1020.8
20260831024557 25 0 0.0 3.2 0.00 0.00 0.00 83 1020.6
20260831023100 25 132 1.6 3.2 0.00 0.00 0.00 82 1020.7
20260831021557 26 132 1.6 8.0 0.00 0.00 0.00 81 1020.5
20260831020053 26 136 4.8 11.3 0.00 0.00 0.00 78 1020.4
20260831014558 26 0 0.0 0.0 0.00 0.00 0.00 77 1020.4
20260831013058 26 0 0.0 0.0 0.00 0.00 0.00 77 1020.1
20260831011557 27 0 0.0 0.0 0.00 0.00 0.00 75 1020.2
20260831004607 28 0 0.0 0.0 0.00 0.00 0.00 71 1019.7
20260831003059 28 0 0.0 4.8 0.00 0.00 0.00 70 1019.7
20260831001555 28 0 0.0 0.0 0.00 0.00 0.00 69 1019.5
20260831000110 29 0 0.0 0.0 0.00 0.00 0.00 68 1019.6
20260830234606 30 0 0.0 0.0 0.00 0.00 0.00 66 1019.5
20260830233058 30 0 0.0 6.4 0.00 0.00 0.00 65 1019.4